Regional Weather Roundup
Issued by NWS Wakefield, VA

Home | Current Version | Previous Version | Text Only | Print | Product List | Glossary On
Versions: 1 2 3 4 5 6 7 8 9 10 11 12 13 14 15 16 17 18 19 20 21 22 23 24 25 26 27 28 29 30 31 32 33 34 35 36 37 38 39 40 41 42 43 44 45 46 47 48 49 50
000
ASUS41 KAKQ 240915
RWRAKQ

REGIONAL WEATHER ROUNDUP
NATIONAL WEATHER SERVICE WAKEFIELD VA
500 AM EDT SUN SEP 24 2017

Note: "fair" indicates few or no clouds below 12,000 feet with no
significant weather and/or obstructions to visibility. * = Denotes
station may not report precipitation (e.g., rain,snow,etc.),
thunder or fog.

VAZ042-051-052>054-056-241000-
NORTHERN VIRGINIA

CITY           SKY/WX    TMP DP  RH WIND       PRES   REMARKS
WASH NATIONAL  MOCLDY    68  61  78 N3        30.07S
DULLES         PTCLDY    62  60  93 N3        30.08S
FORT BELVOIR   NOT AVBL
QUANTICO         N/A     65  62  90 NW7       30.08R
FREDERICKSBRG* CLEAR     61  61 100 CALM      30.07R
STAFFORD*      CLEAR     58  58 100 CALM      30.11R
WARRENTON      FOG       53  50  91 CALM      30.08S VSB 3/4
CULPEPER*      CLEAR     60  58  91 CALM      30.10R
MANASSAS*      CLEAR     57  57 100 CALM      30.09R
LEESBURG*      CLEAR     61  61 100 CALM      30.10R
WINCHESTER     CLEAR     55  54  94 CALM      30.12S
FRONT ROYAL*   SUNNY     57  54  88 SW5       30.12R
LURAY*         SUNNY     54  54 100 CALM      30.14R
$$

VAZ048-049-060>072-079>083-241000-
CENTRAL AND SOUTH CENTRAL VIRGINIA

CITY           SKY/WX    TMP DP  RH WIND       PRES   REMARKS
RICHMOND       CLEAR     66  63  90 N3        30.06R
CHESTERFIELD*  NOT AVBL
PETERSBURG*    PTCLDY    59  59 100 CALM      30.07R
HANOVER        CLEAR     62  61  96 CALM      30.08R
TAPPAHANNOCK*  CLEAR    N/A N/A N/A CALM      30.07R
QUINTON*       FAIR      61  61 100 N5        30.06R
CHARLOTTSVILLE PTCLDY    60  58  92 W5        30.10R
GORDONSVILLE*  SUNNY     57  57 100 CALM      30.09R
ORANGE*        CLEAR     55  55 100 CALM      30.10R
LOUISA*        CLEAR     54  52  94 CALM      30.09R FOG
BUMPASS*       FAIR      59  59 100 NW3       30.08S
FARMVILLE*     MOCLDY    60  60 100 CALM      30.08R
CREWE*         FAIR      61  61 100 NW3       30.08R
FORT PICKETT*  FAIR      65  65 100 NW5       30.07S
CHASE CITY*    FAIR      65  65 100 CALM      30.08S
CLARKSVILLE*   FAIR      63  63 100 CALM      30.07S
SOUTH HILL*    CLEAR     60  60 100 CALM      30.12S
LAWRENCEVILLE* FAIR      64  63  97 CALM      30.06S
EMPORIA*       PTCLDY    61  61 100 CALM      30.07S
$$

VAZ088>098-241000-
SOUTHEAST VIRGINIA

CITY           SKY/WX    TMP DP  RH WIND       PRES   REMARKS
NORFOLK        CLEAR     68  67  96 CALM      30.03S
VIRGINIA BEACH PTCLDY    66  63  90 CALM      30.02S
NORFOLK NAVAL  PTCLDY    68  64  87 CALM      30.05S
WEST POINT*    NOT AVBL
SALUDA*        FAIR      65  65 100 CALM      30.04S
NEWPORT NEWS   FOG       63  62  97 CALM      30.04S VSB 1
LANGLEY AFB    NOT AVBL
FORT EUSTIS    NOT AVBL
WILLIAMSBURG*  CLEAR     70  70 100 NW3       30.06R
HR EXEC AP*    CLOUDY    61  61 100 CALM      30.05S FOG
FRANKLIN*      CLEAR     62  61  96 CALM      30.06R
US460-WAKEFLD  CLEAR     63  63 100 CALM      30.05R
$$

VAZ020-022-025-037-045-241000-
WEST CENTRAL AND SOUTHWEST VIRGINIA

CITY           SKY/WX    TMP DP  RH WIND       PRES   REMARKS
STAUNTON*      PTCLDY    51  50  97 CALM      30.17R
WAYNESBORO*    MOSUNNY   55  55 100 CALM      30.16R
HOT SPRINGS VA PTCLDY    64  45  49 CALM      30.25S
LYNCHBURG      CLOUDY    63  59  87 CALM      30.11S
DANVILLE       MOCLDY    61  61 100 CALM      30.09S
SOUTH BOSTON*  FAIR      60  59  95 CALM      30.09R
MARTINSVILLE   CLOUDY    57  56  97 CALM      30.14S
ROANOKE        PTCLDY    60  57  89 CALM      30.16R
BLACKSBURG     PTCLDY    57  55  95 CALM      30.21S
DUBLIN*        CLOUDY    58  56  92 CALM      30.19S
MARION*        CLEAR     55  51  87 CALM      30.22S
HILLSVILLE*    PTCLDY    56  53  86 CALM      30.18F
RICHLANDS*     FAIR      65  54  67 CALM      30.19S
WISE*          CLEAR     61  55  82 CALM      30.19S
ABINGDON*      CLEAR     63  57  82 E10       30.16S
$$

MDZ021>025-VAZ099-100-241000-
SOUTHERN MARYLAND AND THE DELMARVA PENINSULA

CITY           SKY/WX    TMP DP  RH WIND       PRES   REMARKS
PATUXENT RIVER CLEAR     66  65  96 W5        30.04S
BAY BRIDGE APT CLEAR     70  66  88 CALM      30.05S
LEONARDTOWN    CLEAR     61  61 100 CALM      30.06S
DOVER          NOT AVBL
GEORGETOWN     CLEAR     64  61  90 CALM      30.05R
EASTON         PTCLDY    65  63  93 CALM      30.08S
CAMBRIDGE      MOCLDY    63  61  94 CALM      30.05R
SALISBURY      FOG       62  62 100 CALM      30.04S VSB 1/4
OCEAN CITY     CLEAR     64  64 100 NW3       30.04R
WALLOPS ISLAND FOG       67  67 100 W5        30.03S VSB 1/4
ACCOMACK*      FOG       64  63  99 CALM      30.04R VSB 1
$$

NCZ012>017-030>032-241000-
NORTH CENTRAL AND EASTERN NORTH CAROLINA

CITY           SKY/WX    TMP DP  RH WIND       PRES   REMARKS
ROANOKE RAPIDS FAIR      61  61 100 CALM      30.05S FOG
RALEIGH        MOCLDY    63  63 100 CALM      30.07R
ELIZABETH CITY PTCLDY    67  67 100 CALM      30.04R
AHOSKIE*       PTCLDY    63  63 100 CALM      30.05S
EDENTON*       PTCLDY    66  64  93 CALM      30.04S
CURRITUCK*     PTCLDY    66  65  96 CALM      30.04R
KILL DEVIL HLS PTCLDY    69  65  86 CALM      30.02R
MANTEO         PTCLDY    69  66  92 E5        30.03S
CAPE HATTERAS  PTCLDY    72  69  90 NE6       30.00S
TARBORO*       NOT AVBL
GOLDSBORO      PTCLDY    67  67 100 CALM      30.02S
WASHINGTON       N/A     65  65  97 CALM      30.04S FOG
GREENVILLE     FOG       64  64 100 CALM      30.05F VSB 1/2
NEW BERN       CLEAR     70  69  97 NE7       30.03S
WILMINGTON     PTCLDY    69  68  96 NE6       30.00S
$$

VAZ048-241000-
ELSEWHERE

CITY           SKY/WX    TMP DP  RH WIND       PRES   REMARKS
HARRISBURG PA  CLEAR     66  62  87 N3        30.09R
BALTIMORE      PTCLDY    62  59  90 CALM      30.06R
ANNAPOLIS      CLEAR     72  68  87 NW5       30.05R
ANDREWS AFB    CLEAR     62  60  95 CALM      30.06R
PHILADELPHIA   CLEAR     71  60  68 N7        30.05R
HENDERSON NC   PTCLDY    60  59  96 CALM      30.08R
GREENSBORO     CLOUDY    66  60  81 NE3       30.09S
ROCKY MOUNT    CLEAR     65  65 100 N3        30.05F FOG
$$

VAZ100-241000-
MARINE

STATION/POSITION TIME  TEMP    WIND        PRES    WAVE   SWELL
                       AIR SEA DIR/SP/G            HT/PER HT/PER
                 (UTC) (F)     (DEG/KT/KT) (MB)    (FT/S) (FT/S)
BRANDYWINE LGT   0842   74      10/  5/  5 1017.3R
CAPE MAY NJ      0848   69 74   CALM  /  1 1016.4R
LEWES DE         0842   66 74  280/  5/  5 1016.8R
15NM E FENWICK I 0850   72 71  290/  8/ 10 1017.2R   4/ 8   3/ 8
OCEAN-CITY-INLET 0842   68 74  350/  5/  6 1017.5R
WACHAPREAGUE VA  0842   67 76  270/  2/  3 1017.1R
THOMAS POINT MD  0900   72 76  330/  6/  7   N/A
GOOSES REEF MD   0900   75 75   10/  8/  8 1018.0    0
COVE POINT MD    0842   73     340/  7/  8 1018.0S
SOLOMONS ISLAND  0842   70 76  320/  5/  8 1017.0S
BISHOPS HEAD MD  0842   72 77  340/  4/  6 1017.3S
PINEY POINT MD   0842          330/  7/  8   N/A
POTOMAC MD       0900   73 76  320/  8/  8 1016.5
CAMBRIDGE MD     0842   69 76              1018.1R
LEWISETTA VA     0842   68 77  290/  4/  4 1017.3R
RAPPAHANNOCK LGT 0842          280/  5/  6 1017.7R
STINGRAY PT      0900   74 76  320/  8/ 10 1017.4
YORK RVR RNG VA  0842   72     330/  6/  7 1017.7R
YORKTOWN VA      0842   71 77  300/  3/  5 1016.9R
JAMESTOWN VA     0900      79  340/  6/  8   N/A
DOMINION TERM VA 0842   73     290/  4/  5 1017.2S
KIPTOPEKE VA     0842      76  310/  1/  2   N/A
CHES BAY BRIDGE  0842   73 76  260/  3/  3 1016.9R
CAPE HENRY VA    0842   72     250/  2/  2   N/A
WILLOUBY STN VA  0842   73     310/  5/  5 1017.0F
S CRANEY ISL VA  0842   70     300/  2/  3 1016.8S
CAPE HENRY BUOY  0800      75                N/A     4/15   2/15
1ST LANDING BUOY 0900   74 76              1017.0    1/ 6
64NM E OF VA BCH 0850   70 69  350/  8/ 10 1016.9S   8/15   8/15
DUCK PIER NC     0842   73 76   80/  7/  9 1016.6R
44100 DUCK FRF   0835      74                N/A     5/14   3/14
44056 DUCK FRF   0830      76                N/A     5/14   3/14
OREGON INLET NC  0842   72 77   40/  7/  9 1016.4F
HATTERAS NC      0842   72 78   50/  8/ 12 1015.8F
DIAMOND SHLS NC  0850   73 74   30/ 16/ 19 1015.1F   7/14   7/14
CAPE LOOKOUT NC  0900   74      40/ 15/ 18 1015.3R
$$



USA.gov is the U.S. government's official web portal to all federal, state and local government web resources and services.